Regional Weather Roundup
Issued by NWS Albany, NY

Home | Current Version | Previous Version | Text Only | Print | Product List | Glossary On
Versions: 1 2 3 4 5 6 7 8 9 10 11 12 13 14 15 16 17 18 19 20 21 22 23 24 25 26 27
000
ASUS41 KALY 210510
RWRALY

NEW YORK STATE HOURLY WEATHER ROUNDUP
NATIONAL WEATHER SERVICE ALBANY NY
1200 AM EST WED FEB 21 2018

NOTE: "FAIR" INDICATES FEW OR NO CLOUDS BELOW 12,000 FEET WITH NO
SIGNIFICANT WEATHER AND/OR NO OBSTRUCTIONS TO VISIBILITY.

NYZ032-033-038>043-046>054-057>066-NYZ062>081-082-084-210600-
EAST


CITY           SKY/WX    TMP DP  RH WIND       PRES   REMARKS
ALBANY         MOCLDY    57  50  77 S6        30.22S
GLENS FALLS    FAIR      36  35  96 CALM      30.21S
POUGHKEEPSIE   FAIR      44  42  93 CALM      30.28S
NEWBURGH       CLEAR     48  48 100 CALM      30.30S
MONTGOMERY     FOG       39  39 100 CALM      30.28S VSB 1/2
WHITE PLAINS   FAIR      51  49  92 S3        30.32R
ISLIP          FOG       48  48 100 SW13      30.36R VSB 1/2
NEW YORK CITY  MOCLDY    53  48  83 S9        30.33R
CENTRAL PARK   FAIR      63  57  81 SW8       30.35R
$$

NYZ005>009-017-018-044>046-055-056-210600-
CENTRAL


CITY           SKY/WX    TMP DP  RH WIND       PRES   REMARKS
FULTON         CLOUDY    63  53  70 S12       30.11R
SYRACUSE       MOCLDY    65  55  70 S12       30.12S
ROME           FAIR      45  43  93 VRB3      30.17S
ELMIRA         FAIR      61  54  77 W8        30.18F
BINGHAMTON     FAIR      59  52  77 S12G21    30.21F
MONTICELLO     FAIR      50  49  96 CALM      30.30F
$$

NYZ026>034-041>043-087-210600-
NORTH


CITY           SKY/WX    TMP DP  RH WIND       PRES   REMARKS
WATERTOWN      MOCLDY    64  54  69 S13G22    30.05F
FORT DRUM      NOT AVBL
OGDENSBURG     FAIR      53  53  99 S5        30.03F
MASSENA        CLOUDY    39  39 100 NE5       30.05F FOG
SARANAC LAKE   MOCLDY    49  49 100 SW3       30.12F FOG
PLATTSBURGH    CLOUDY    45  44  97 CALM      30.11S FOG
$$

NYZ001>004-010>016-019>021-085-210600-
WEST


CITY           SKY/WX    TMP DP  RH WIND       PRES   REMARKS
NIAGARA FALLS  FAIR      66  51  58 S15       30.03S
BUFFALO        FAIR      66  53  63 SW21      30.06R
DUNKIRK        FAIR      66  53  63 S15       30.08S
JAMESTOWN        N/A    N/A N/A N/A MISG        N/A
WELLSVILLE     FAIR      62  52  69 S8        30.20R
ROCHESTER      MOCLDY    66  54  65 SW12      30.08S
PENN YAN       FAIR      61  50  67 SW14      30.15S
$$

             KEY
       WCI = WIND CHILL INDEX
       VSB = VISIBILITY
       HX  = HEAT INDEX
$$




USA.gov is the U.S. government's official web portal to all federal, state and local government web resources and services.